| time (UTC) | temp F | wind direction | speed MPH | gust MPH | rain 1hr in | rain 24hr in | rain mn in | humidity % | barometer mb |
| 20260510085150 | 41 | 31 | 3.0 | 5.0 | 0.00 | 0.00 | 0.00 | 74 | |
| 20260510084647 | 41 | 26 | 1.0 | 5.0 | 0.00 | 0.00 | 0.00 | 74 | |
| 20260510084143 | 41 | 354 | 2.0 | 6.0 | 0.00 | 0.00 | 0.00 | 73 | |
| 20260510083640 | 41 | 50 | 2.0 | 3.0 | 0.00 | 0.00 | 0.00 | 73 | |
| 20260510083137 | 41 | 39 | 3.0 | 5.0 | 0.00 | 0.00 | 0.00 | 73 | |
| 20260510082633 | 41 | 38 | 2.0 | 8.0 | 0.00 | 0.00 | 0.00 | 73 | |
| 20260510082129 | 41 | 5 | 3.0 | 6.0 | 0.00 | 0.00 | 0.00 | 73 | |
| 20260510081624 | 42 | 8 | 1.0 | 2.0 | 0.00 | 0.00 | 0.00 | 73 | |
| 20260510081120 | 42 | 21 | 0.0 | 7.0 | 0.00 | 0.00 | 0.00 | 72 | |
| 20260510080619 | 42 | 42 | 3.0 | 6.0 | 0.00 | 0.00 | 0.00 | 72 | |
| 20260510080116 | 42 | 41 | 2.0 | 5.0 | 0.00 | 0.00 | 0.00 | 72 | |
| 20260510075614 | 42 | 29 | 1.0 | 5.0 | 0.00 | 0.00 | 0.00 | 72 | |
| 20260510075111 | 42 | 33 | 2.0 | 3.0 | 0.00 | 0.00 | 0.00 | 72 | |
| 20260510074607 | 42 | 2 | 3.0 | 5.0 | 0.00 | 0.00 | 0.00 | 71 | |
| 20260510074103 | 42 | 357 | 3.0 | 6.0 | 0.00 | 0.00 | 0.00 | 71 | |
| 20260510073559 | 43 | 6 | 2.0 | 3.0 | 0.00 | 0.00 | 0.00 | 71 | |
| 20260510073057 | 43 | 10 | 3.0 | 5.0 | 0.00 | 0.00 | 0.00 | 70 | |
| 20260510072553 | 43 | 43 | 1.0 | 2.0 | 0.00 | 0.00 | 0.00 | 70 | |
| 20260510072049 | 43 | 22 | 1.0 | 3.0 | 0.00 | 0.00 | 0.00 | 70 | |
| 20260510071545 | 44 | 41 | 2.0 | 5.0 | 0.00 | 0.00 | 0.00 | 69 | |
| 20260510071044 | 44 | 22 | 1.0 | 6.0 | 0.00 | 0.00 | 0.00 | 69 | |
| 20260510070540 | 44 | 68 | 2.0 | 3.0 | 0.00 | 0.00 | 0.00 | 69 | |
| 20260510070037 | 44 | 11 | 3.0 | 7.0 | 0.00 | 0.00 | 0.00 | 68 | |
| 20260510065533 | 44 | 46 | 2.0 | 7.0 | 0.00 | 0.00 | 0.00 | 68 | |
| 20260510065029 | 45 | 338 | 2.0 | 3.0 | 0.00 | 0.00 | 0.00 | 68 | |
| 20260510064526 | 45 | 57 | 3.0 | 3.0 | 0.00 | 0.00 | 0.00 | 68 | |
| 20260510064023 | 45 | 40 | 4.0 | 5.0 | 0.00 | 0.00 | 0.00 | 67 | |
| 20260510063520 | 46 | 8 | 2.0 | 3.0 | 0.00 | 0.00 | 0.00 | 67 | |
| 20260510063017 | 46 | 65 | 1.0 | 6.0 | 0.00 | 0.00 | 0.00 | 67 | |
| 20260510062512 | 46 | 3 | 1.0 | 5.0 | 0.00 | 0.00 | 0.00 | 67 | |
| 20260510062008 | 46 | 20 | 1.0 | 6.0 | 0.00 | 0.00 | 0.00 | 68 | |
| 20260510061505 | 46 | 12 | 1.0 | 7.0 | 0.00 | 0.00 | 0.00 | 68 | |
| 20260510061001 | 46 | 15 | 1.0 | 5.0 | 0.00 | 0.00 | 0.00 | 68 | |
| 20260510060458 | 46 | 28 | 2.0 | 3.0 | 0.00 | 0.00 | 0.00 | 68 | |
| 20260510055954 | 47 | 39 | 1.0 | 2.0 | 0.00 | 0.00 | 0.00 | 66 | |
| 20260510055450 | 47 | 6 | 1.0 | 6.0 | 0.00 | 0.00 | 0.00 | 65 | |
| 20260510054948 | 47 | 9 | 1.0 | 3.0 | 0.00 | 0.00 | 0.00 | 66 | |
| 20260510054443 | 47 | 21 | 2.0 | 5.0 | 0.00 | 0.00 | 0.00 | 66 | |
| 20260510053938 | 47 | 37 | 0.0 | 3.0 | 0.00 | 0.00 | 0.00 | 67 | |
| 20260510053434 | 47 | 359 | 1.0 | 3.0 | 0.00 | 0.00 | 0.00 | 67 | |
| 20260510052931 | 47 | 46 | 1.0 | 2.0 | 0.00 | 0.00 | 0.00 | 66 | |
| 20260510052426 | 47 | 10 | 0.0 | 1.0 | 0.00 | 0.00 | 0.00 | 67 | |
| 20260510051923 | 48 | 0 | 0.0 | 0.0 | 0.00 | 0.00 | 0.00 | 67 | |
| 20260510051419 | 48 | 48 | 0.0 | 1.0 | 0.00 | 0.00 | 0.00 | 67 | |
| 20260510050916 | 48 | 18 | 2.0 | 3.0 | 0.00 | 0.00 | 0.00 | 66 | |
| 20260510050413 | 48 | 17 | 0.0 | 2.0 | 0.00 | 0.00 | 0.00 | 67 | |
| 20260510045910 | 48 | 89 | 2.0 | 3.0 | 0.00 | 0.00 | 0.00 | 67 | |
| 20260510045407 | 48 | 36 | 1.0 | 2.0 | 0.00 | 0.00 | 0.00 | 68 | |
| 20260510044904 | 49 | 30 | 1.0 | 2.0 | 0.00 | 0.00 | 0.00 | 68 | |
| 20260510044401 | 49 | 7 | 0.0 | 1.0 | 0.00 | 0.00 | 0.00 | 69 | |
| 20260510043857 | 49 | 357 | 2.0 | 5.0 | 0.00 | 0.00 | 0.00 | 67 | |
| 20260510043353 | 49 | 1 | 0.0 | 2.0 | 0.00 | 0.00 | 0.00 | 68 | |
| 20260510042851 | 49 | 31 | 0.0 | 1.0 | 0.00 | 0.00 | 0.00 | 67 | |
| 20260510042347 | 49 | 25 | 0.0 | 2.0 | 0.00 | 0.00 | 0.00 | 67 | |
| 20260510041843 | 49 | 21 | 1.0 | 3.0 | 0.00 | 0.00 | 0.00 | 65 | |
| 20260510041340 | 49 | 9 | 0.0 | 3.0 | 0.00 | 0.00 | 0.00 | 66 | |
| 20260510040838 | 49 | 52 | 0.0 | 5.0 | 0.00 | 0.00 | 0.00 | 67 | |
| 20260510040334 | 50 | 24 | 0.0 | 1.0 | 0.00 | 0.00 | 0.00 | 68 | |
| 20260510035830 | 50 | 5 | 4.0 | 6.0 | 0.00 | 0.12 | 0.12 | 67 | |
| 20260510035326 | 50 | 21 | 0.0 | 1.0 | 0.00 | 0.12 | 0.12 | 73 | |
| 20260510034822 | 50 | 10 | 1.0 | 2.0 | 0.00 | 0.12 | 0.12 | 73 | |
| 20260510034320 | 50 | 40 | 0.0 | 2.0 | 0.00 | 0.12 | 0.12 | 71 | |
| 20260510033816 | 50 | 37 | 1.0 | 3.0 | 0.00 | 0.12 | 0.12 | 69 | |
| 20260510033313 | 50 | 61 | 1.0 | 6.0 | 0.00 | 0.12 | 0.12 | 69 | |
| 20260510032810 | 50 | 9 | 2.0 | 5.0 | 0.00 | 0.12 | 0.12 | 68 | |
| 20260510032306 | 50 | 357 | 0.0 | 7.0 | 0.00 | 0.12 | 0.12 | 70 | |
| 20260510031802 | 51 | 53 | 2.0 | 3.0 | 0.00 | 0.12 | 0.12 | 70 | |
| 20260510031257 | 51 | 339 | 0.0 | 3.0 | 0.00 | 0.12 | 0.12 | 71 | |
| 20260510030751 | 51 | 26 | 0.0 | 2.0 | 0.00 | 0.12 | 0.12 | 74 | |
| 20260510030248 | 51 | 32 | 2.0 | 2.0 | 0.00 | 0.12 | 0.12 | 76 | |
| 20260510025746 | 51 | 56 | 2.0 | 5.0 | 0.00 | 0.12 | 0.12 | 77 | |
| 20260510025243 | 51 | 4 | 0.0 | 1.0 | 0.00 | 0.12 | 0.12 | 78 | |
| 20260510024739 | 51 | 32 | 1.0 | 5.0 | 0.00 | 0.12 | 0.12 | 78 | |
| 20260510024236 | 51 | 6 | 0.0 | 1.0 | 0.00 | 0.12 | 0.12 | 81 | |
| 20260510023731 | 52 | 16 | 0.0 | 2.0 | 0.00 | 0.12 | 0.12 | 84 | |
| 20260510023224 | 52 | 7 | 3.0 | 3.0 | 0.00 | 0.12 | 0.12 | 85 | |
| 20260510022720 | 52 | 6 | 0.0 | 1.0 | 0.00 | 0.12 | 0.12 | 86 | |
| 20260510022220 | 53 | 39 | 1.0 | 5.0 | 0.00 | 0.12 | 0.12 | 86 | |
| 20260510021714 | 53 | 1 | 2.0 | 3.0 | 0.00 | 0.12 | 0.12 | 86 | |
| 20260510021212 | 53 | 43 | 2.0 | 8.0 | 0.00 | 0.12 | 0.12 | 86 | |
| 20260510020708 | 54 | 75 | 5.0 | 9.0 | 0.00 | 0.12 | 0.12 | 85 | |
| 20260510020203 | 55 | 57 | 2.0 | 7.0 | 0.00 | 0.12 | 0.12 | 83 | |
| 20260510015659 | 54 | 9 | 2.0 | 2.0 | 0.00 | 0.12 | 0.12 | 84 | |
| 20260510015156 | 54 | 37 | 2.0 | 8.0 | 0.00 | 0.12 | 0.12 | 86 | |
| 20260510014655 | 54 | 358 | 0.0 | 2.0 | 0.00 | 0.12 | 0.12 | 86 | |
| 20260510014153 | 54 | 9 | 1.0 | 7.0 | 0.00 | 0.12 | 0.12 | 86 | |
| 20260510013648 | 54 | 5 | 0.0 | 8.0 | 0.00 | 0.12 | 0.12 | 87 | |
| 20260510013144 | 54 | 33 | 1.0 | 1.0 | 0.00 | 0.12 | 0.12 | 88 | |
| 20260510012644 | 53 | 16 | 1.0 | 2.0 | 0.00 | 0.12 | 0.12 | 88 | |
| 20260510012140 | 53 | 8 | 0.0 | 0.0 | 0.00 | 0.12 | 0.12 | 88 | |
| 20260510011635 | 53 | 3 | 0.0 | 2.0 | 0.00 | 0.12 | 0.12 | 89 | |
| 20260510011131 | 53 | 83 | 0.0 | 1.0 | 0.00 | 0.12 | 0.12 | 89 | |
| 20260510010627 | 53 | 31 | 0.0 | 1.0 | 0.00 | 0.12 | 0.12 | 89 | |
| 20260510010124 | 53 | 7 | 0.0 | 0.0 | 0.00 | 0.12 | 0.12 | 89 | |
| 20260510005620 | 53 | 261 | 1.0 | 2.0 | 0.00 | 0.12 | 0.12 | 89 | |
| 20260510005117 | 53 | 340 | 0.0 | 1.0 | 0.00 | 0.12 | 0.12 | 88 | |
| 20260510004615 | 53 | 128 | 1.0 | 2.0 | 0.00 | 0.12 | 0.12 | 88 | |
| 20260510004113 | 53 | 205 | 0.0 | 1.0 | 0.00 | 0.12 | 0.12 | 88 | |
| 20260510003610 | 53 | 349 | 0.0 | 1.0 | 0.00 | 0.12 | 0.12 | 87 | |
| 20260510003106 | 53 | 32 | 0.0 | 1.0 | 0.00 | 0.12 | 0.12 | 87 | |
| 20260510002600 | 54 | 296 | 3.0 | 5.0 | 0.00 | 0.12 | 0.12 | 87 | |
| 20260510002058 | 54 | 68 | 1.0 | 3.0 | 0.00 | 0.12 | 0.12 | 86 | |
| 20260510001555 | 54 | 289 | 1.0 | 2.0 | 0.00 | 0.12 | 0.12 | 86 | |
| 20260510001054 | 54 | 216 | 1.0 | 2.0 | 0.00 | 0.12 | 0.12 | 85 | |
| 20260510000548 | 54 | 130 | 1.0 | 6.0 | 0.00 | 0.12 | 0.12 | 85 | |
| 20260510000046 | 54 | 187 | 1.0 | 3.0 | 0.00 | 0.12 | 0.12 | 84 | |
| 20260509235542 | 54 | 108 | 1.0 | 2.0 | 0.00 | 0.12 | 0.12 | 84 | |
| 20260509235039 | 55 | 8 | 2.0 | 7.0 | 0.00 | 0.12 | 0.12 | 83 | |
| 20260509234534 | 55 | 69 | 3.0 | 5.0 | 0.00 | 0.12 | 0.12 | 83 | |
| 20260509234033 | 55 | 281 | 1.0 | 6.0 | 0.00 | 0.12 | 0.12 | 82 | |
| 20260509233530 | 55 | 205 | 1.0 | 2.0 | 0.00 | 0.12 | 0.12 | 82 | |
| 20260509233027 | 55 | 101 | 0.0 | 3.0 | 0.00 | 0.12 | 0.12 | 82 | |
| 20260509232524 | 55 | 133 | 2.0 | 3.0 | 0.00 | 0.12 | 0.12 | 82 | |
| 20260509232020 | 56 | 359 | 0.0 | 5.0 | 0.00 | 0.12 | 0.12 | 82 | |
| 20260509231517 | 55 | 5 | 0.0 | 5.0 | 0.00 | 0.12 | 0.12 | 82 | |
| 20260509231015 | 55 | 303 | 2.0 | 3.0 | 0.00 | 0.12 | 0.12 | 82 | |
| 20260509230511 | 56 | 273 | 4.0 | 6.0 | 0.00 | 0.12 | 0.12 | 81 | |
| 20260509230008 | 56 | 26 | 2.0 | 7.0 | 0.00 | 0.12 | 0.12 | 81 | |
| 20260509225504 | 57 | 344 | 0.0 | 3.0 | 0.00 | 0.12 | 0.12 | 80 | |
| 20260509224959 | 57 | 290 | 3.0 | 9.0 | 0.00 | 0.12 | 0.12 | 80 | |
| 20260509224455 | 57 | 164 | 3.0 | 7.0 | 0.00 | 0.12 | 0.12 | 80 | |
| 20260509223952 | 57 | 189 | 5.0 | 7.0 | 0.00 | 0.12 | 0.12 | 81 | |
| 20260509223449 | 57 | 328 | 3.0 | 8.0 | 0.00 | 0.12 | 0.12 | 83 | |
| 20260509222946 | 57 | 231 | 3.0 | 9.0 | 0.00 | 0.12 | 0.12 | 84 | |
| 20260509222442 | 57 | 216 | 7.0 | 10.0 | 0.00 | 0.12 | 0.12 | 85 | |
| 20260509221938 | 57 | 95 | 4.0 | 6.0 | 0.00 | 0.12 | 0.12 | 87 | |
| 20260509221435 | 56 | 241 | 2.0 | 10.0 | 0.00 | 0.12 | 0.12 | 87 | |
| 20260509220930 | 55 | 309 | 2.0 | 11.0 | 0.00 | 0.12 | 0.12 | 86 | |
| 20260509220426 | 55 | 225 | 7.0 | 10.0 | 0.00 | 0.12 | 0.12 | 86 | |
| 20260509215923 | 55 | 320 | 3.0 | 7.0 | 0.00 | 0.12 | 0.12 | 87 | |
| 20260509215418 | 54 | 190 | 3.0 | 7.0 | 0.00 | 0.12 | 0.12 | 88 | |
| 20260509214916 | 55 | 265 | 2.0 | 7.0 | 0.00 | 0.12 | 0.12 | 89 | |
| 20260509214413 | 55 | 256 | 5.0 | 7.0 | 0.05 | 0.12 | 0.12 | 87 | |
| 20260509213910 | 54 | 257 | 6.0 | 9.0 | 0.17 | 0.12 | 0.12 | 84 | |
| 20260509213405 | 55 | 222 | 5.0 | 9.0 | 0.35 | 0.11 | 0.11 | 85 | |
| 20260509212903 | 57 | 40 | 1.0 | 7.0 | 0.31 | 0.08 | 0.08 | 85 | |
| 20260509212401 | 58 | 120 | 2.0 | 16.0 | 0.19 | 0.04 | 0.04 | 79 | |
| 20260509211856 | 59 | 158 | 5.0 | 8.0 | 0.17 | 0.03 | 0.03 | 77 | |
| 20260509211353 | 59 | 54 | 2.0 | 5.0 | 0.05 | 0.01 | 0.01 | 77 | |
| 20260509210849 | 60 | 310 | 2.0 | 6.0 | 0.00 | 0.00 | 0.00 | 75 | |
| 20260509210347 | 60 | 264 | 0.0 | 5.0 | 0.00 | 0.00 | 0.00 | 73 | |
| 20260509205846 | 61 | 171 | 2.0 | 6.0 | 0.00 | 0.00 | 0.00 | 72 | |
| 20260509205346 | 62 | 70 | 3.0 | 11.0 | 0.00 | 0.00 | 0.00 | 68 | |
| 20260509204843 | 62 | 180 | 5.0 | 8.0 | 0.00 | 0.00 | 0.00 | 67 | |
| 20260509204334 | 62 | 70 | 1.0 | 10.0 | 0.00 | 0.00 | 0.00 | 67 | |
| 20260509203830 | 62 | 139 | 1.0 | 6.0 | 0.00 | 0.00 | 0.00 | 66 | |
| 20260509203327 | 62 | 240 | 2.0 | 7.0 | 0.00 | 0.00 | 0.00 | 64 | |
| 20260509202824 | 62 | 136 | 8.0 | 13.0 | 0.00 | 0.00 | 0.00 | 63 | |
| 20260509202320 | 63 | 262 | 4.0 | 13.0 | 0.00 | 0.00 | 0.00 | 63 | |
| 20260509201819 | 63 | 256 | 4.0 | 6.0 | 0.00 | 0.00 | 0.00 | 61 | |
| 20260509201316 | 63 | 182 | 3.0 | 9.0 | 0.00 | 0.00 | 0.00 | 60 | |
| 20260509200813 | 64 | 341 | 2.0 | 6.0 | 0.00 | 0.00 | 0.00 | 61 | |
| 20260509200308 | 64 | 246 | 2.0 | 8.0 | 0.00 | 0.00 | 0.00 | 63 | |
| 20260509195805 | 63 | 229 | 3.0 | 14.0 | 0.00 | 0.00 | 0.00 | 63 | |
| 20260509195300 | 63 | 205 | 5.0 | 10.0 | 0.00 | 0.00 | 0.00 | 62 | |
| 20260509194759 | 62 | 126 | 4.0 | 7.0 | 0.00 | 0.00 | 0.00 | 63 | |
| 20260509194256 | 62 | 277 | 5.0 | 10.0 | 0.00 | 0.00 | 0.00 | 62 | |
| 20260509193753 | 63 | 356 | 3.0 | 8.0 | 0.00 | 0.00 | 0.00 | 62 | |
| 20260509193252 | 63 | 266 | 3.0 | 13.0 | 0.00 | 0.00 | 0.00 | 60 | |
| 20260509192749 | 63 | 279 | 2.0 | 6.0 | 0.00 | 0.00 | 0.00 | 60 | |
| 20260509192244 | 63 | 243 | 6.0 | 10.0 | 0.00 | 0.00 | 0.00 | 60 | |
| 20260509191740 | 63 | 51 | 3.0 | 6.0 | 0.00 | 0.00 | 0.00 | 59 | |
| 20260509191236 | 63 | 151 | 1.0 | 8.0 | 0.00 | 0.00 | 0.00 | 58 | |
| 20260509190732 | 64 | 304 | 1.0 | 5.0 | 0.00 | 0.00 | 0.00 | 58 | |
| 20260509190230 | 64 | 294 | 7.0 | 10.0 | 0.00 | 0.00 | 0.00 | 57 | |
| 20260509185727 | 64 | 199 | 5.0 | 10.0 | 0.00 | 0.00 | 0.00 | 57 | |
| 20260509185223 | 64 | 165 | 1.0 | 6.0 | 0.00 | 0.00 | 0.00 | 56 | |
| 20260509184721 | 64 | 319 | 6.0 | 9.0 | 0.00 | 0.00 | 0.00 | 55 | |
| 20260509184218 | 65 | 6 | 3.0 | 3.0 | 0.00 | 0.00 | 0.00 | 54 | |
| 20260509183714 | 66 | 235 | 2.0 | 6.0 | 0.00 | 0.00 | 0.00 | 54 | |
| 20260509183209 | 66 | 342 | 2.0 | 10.0 | 0.00 | 0.00 | 0.00 | 55 | |
| 20260509182705 | 66 | 231 | 5.0 | 9.0 | 0.00 | 0.00 | 0.00 | 56 | |
| 20260509182203 | 66 | 49 | 4.0 | 7.0 | 0.00 | 0.00 | 0.00 | 56 | |
| 20260509181700 | 66 | 249 | 1.0 | 5.0 | 0.00 | 0.00 | 0.00 | 55 | |
| 20260509181157 | 67 | 195 | 3.0 | 8.0 | 0.00 | 0.00 | 0.00 | 53 | |
| 20260509180654 | 67 | 260 | 6.0 | 8.0 | 0.00 | 0.00 | 0.00 | 53 | |
| 20260509180150 | 66 | 274 | 3.0 | 6.0 | 0.00 | 0.00 | 0.00 | 55 | |
| 20260509175646 | 67 | 268 | 5.0 | 9.0 | 0.00 | 0.00 | 0.00 | 54 | |
| 20260509175144 | 65 | 278 | 4.0 | 9.0 | 0.00 | 0.00 | 0.00 | 56 | |
| 20260509174639 | 66 | 282 | 5.0 | 11.0 | 0.00 | 0.00 | 0.00 | 55 | |
| 20260509174134 | 65 | 267 | 3.0 | 6.0 | 0.00 | 0.00 | 0.00 | 56 | |
| 20260509173630 | 66 | 351 | 2.0 | 5.0 | 0.00 | 0.00 | 0.00 | 56 | |
| 20260509173126 | 66 | 340 | 2.0 | 6.0 | 0.00 | 0.00 | 0.00 | 57 | |
| 20260509172623 | 67 | 173 | 2.0 | 6.0 | 0.00 | 0.00 | 0.00 | 56 | |
| 20260509172119 | 66 | 76 | 5.0 | 7.0 | 0.00 | 0.00 | 0.00 | 57 | |
| 20260509171615 | 66 | 346 | 1.0 | 9.0 | 0.00 | 0.00 | 0.00 | 57 | |
| 20260509171111 | 66 | 189 | 5.0 | 10.0 | 0.00 | 0.00 | 0.00 | 57 | |
| 20260509170608 | 65 | 218 | 3.0 | 9.0 | 0.00 | 0.00 | 0.00 | 58 | |
| 20260509170104 | 65 | 220 | 2.0 | 7.0 | 0.00 | 0.00 | 0.00 | 59 | |
| 20260509165603 | 66 | 329 | 1.0 | 3.0 | 0.00 | 0.00 | 0.00 | 57 | |
| 20260509165058 | 65 | 4 | 5.0 | 9.0 | 0.00 | 0.00 | 0.00 | 60 | |
| 20260509164554 | 65 | 87 | 2.0 | 6.0 | 0.00 | 0.00 | 0.00 | 60 | |
| 20260509164050 | 65 | 311 | 0.0 | 6.0 | 0.00 | 0.00 | 0.00 | 60 | |
| 20260509163549 | 66 | 15 | 3.0 | 8.0 | 0.00 | 0.00 | 0.00 | 60 | |
| 20260509163043 | 64 | 184 | 6.0 | 8.0 | 0.00 | 0.00 | 0.00 | 60 | |
| 20260509162541 | 66 | 172 | 3.0 | 5.0 | 0.00 | 0.00 | 0.00 | 60 | |
| 20260509162036 | 65 | 58 | 3.0 | 9.0 | 0.00 | 0.00 | 0.00 | 62 | |
| 20260509161533 | 64 | 233 | 4.0 | 6.0 | 0.00 | 0.00 | 0.00 | 63 | |
| 20260509161028 | 63 | 257 | 4.0 | 6.0 | 0.00 | 0.00 | 0.00 | 63 | |
| 20260509160524 | 64 | 347 | 5.0 | 8.0 | 0.00 | 0.00 | 0.00 | 63 | |
| 20260509160020 | 64 | 356 | 2.0 | 5.0 | 0.00 | 0.00 | 0.00 | 63 | |
| 20260509155516 | 64 | 237 | 3.0 | 6.0 | 0.00 | 0.00 | 0.00 | 64 | |
| 20260509155012 | 63 | 207 | 6.0 | 9.0 | 0.00 | 0.00 | 0.00 | 65 | |
| 20260509154509 | 62 | 209 | 2.0 | 6.0 | 0.00 | 0.00 | 0.00 | 68 | |
| 20260509154007 | 62 | 276 | 2.0 | 7.0 | 0.00 | 0.00 | 0.00 | 69 | |
| 20260509153503 | 61 | 238 | 2.0 | 7.0 | 0.00 | 0.00 | 0.00 | 70 | |
| 20260509152959 | 61 | 170 | 3.0 | 6.0 | 0.00 | 0.00 | 0.00 | 72 | |
| 20260509152455 | 60 | 283 | 2.0 | 7.0 | 0.00 | 0.00 | 0.00 | 72 | |
| 20260509151952 | 59 | 269 | 3.0 | 6.0 | 0.00 | 0.00 | 0.00 | 73 | |
| 20260509151449 | 59 | 277 | 0.0 | 6.0 | 0.00 | 0.00 | 0.00 | 77 | |
| 20260509150947 | 58 | 0 | 0.0 | 2.0 | 0.00 | 0.00 | 0.00 | 80 | |
| 20260509150444 | 57 | 265 | 2.0 | 5.0 | 0.00 | 0.00 | 0.00 | 81 | |
| 20260509145942 | 56 | 330 | 0.0 | 2.0 | 0.00 | 0.00 | 0.00 | 82 | |
| 20260509145437 | 56 | 244 | 1.0 | 2.0 | 0.00 | 0.00 | 0.00 | 81 | |
| 20260509144932 | 56 | 6 | 0.0 | 3.0 | 0.00 | 0.00 | 0.00 | 81 | |
| 20260509144430 | 56 | 352 | 0.0 | 2.0 | 0.00 | 0.00 | 0.00 | 82 | |
| 20260509143927 | 56 | 267 | 1.0 | 3.0 | 0.00 | 0.00 | 0.00 | 81 | |
| 20260509143424 | 55 | 340 | 0.0 | 2.0 | 0.00 | 0.00 | 0.00 | 82 | |
| 20260509142920 | 55 | 341 | 0.0 | 3.0 | 0.00 | 0.00 | 0.00 | 82 | |
| 20260509142417 | 54 | 273 | 1.0 | 5.0 | 0.00 | 0.00 | 0.00 | 82 | |
| 20260509141912 | 54 | 300 | 2.0 | 2.0 | 0.00 | 0.00 | 0.00 | 82 | |
| 20260509141410 | 53 | 344 | 1.0 | 3.0 | 0.00 | 0.00 | 0.00 | 82 | |
| 20260509140906 | 53 | 241 | 1.0 | 2.0 | 0.00 | 0.00 | 0.00 | 82 | |
| 20260509140403 | 53 | 339 | 1.0 | 5.0 | 0.00 | 0.00 | 0.00 | 82 | |
| 20260509135901 | 53 | 332 | 0.0 | 2.0 | 0.00 | 0.00 | 0.00 | 82 | |
| 20260509135358 | 53 | 254 | 0.0 | 3.0 | 0.00 | 0.00 | 0.00 | 82 | |
| 20260509134856 | 52 | 0 | 2.0 | 5.0 | 0.00 | 0.00 | 0.00 | 81 | |
| 20260509134353 | 52 | 280 | 2.0 | 2.0 | 0.00 | 0.00 | 0.00 | 81 | |
| 20260509133850 | 51 | 333 | 1.0 | 2.0 | 0.00 | 0.00 | 0.00 | 81 | |
| 20260509133346 | 51 | 315 | 1.0 | 3.0 | 0.00 | 0.00 | 0.00 | 80 | |
| 20260509132845 | 51 | 294 | 0.0 | 2.0 | 0.00 | 0.00 | 0.00 | 79 | |
| 20260509132343 | 50 | 324 | 0.0 | 0.0 | 0.00 | 0.00 | 0.00 | 79 | |
| 20260509131840 | 50 | 341 | 0.0 | 0.0 | 0.00 | 0.00 | 0.00 | 79 | |
| 20260509131336 | 50 | 320 | 1.0 | 1.0 | 0.00 | 0.00 | 0.00 | 79 | |
| 20260509130833 | 49 | 320 | 0.0 | 0.0 | 0.00 | 0.00 | 0.00 | 80 | |
| 20260509130328 | 48 | 320 | 0.0 | 1.0 | 0.00 | 0.00 | 0.00 | 80 | |
| 20260509125825 | 48 | 315 | 0.0 | 1.0 | 0.00 | 0.00 | 0.00 | 81 | |
| 20260509125322 | 48 | 242 | 1.0 | 1.0 | 0.00 | 0.00 | 0.00 | 81 | |
| 20260509124818 | 47 | 307 | 1.0 | 1.0 | 0.00 | 0.00 | 0.00 | 81 | |
| 20260509124315 | 47 | 293 | 0.0 | 2.0 | 0.00 | 0.00 | 0.00 | 82 | |
| 20260509123814 | 47 | 192 | 1.0 | 2.0 | 0.00 | 0.00 | 0.00 | 81 | |
| 20260509123310 | 46 | 331 | 1.0 | 1.0 | 0.00 | 0.00 | 0.00 | 81 | |
| 20260509113904 | 44 | 334 | 0.0 | 0.0 | 0.00 | 0.00 | 0.00 | 80 | |
| 20260509113401 | 44 | 334 | 0.0 | 0.0 | 0.00 | 0.00 | 0.00 | 80 | |
| 20260509112857 | 44 | 169 | 0.0 | 2.0 | 0.00 | 0.00 | 0.00 | 80 | |
| 20260509112354 | 44 | 17 | 0.0 | 1.0 | 0.00 | 0.00 | 0.00 | 80 | |
| 20260509111852 | 43 | 336 | 0.0 | 2.0 | 0.00 | 0.00 | 0.00 | 81 | |
| 20260509111348 | 43 | 323 | 0.0 | 0.0 | 0.00 | 0.00 | 0.00 | 81 | |
| 20260509110846 | 43 | 351 | 0.0 | 0.0 | 0.00 | 0.00 | 0.00 | 81 | |
| 20260509110342 | 43 | 323 | 0.0 | 1.0 | 0.00 | 0.00 | 0.00 | 81 | |
| 20260509105841 | 43 | 343 | 0.0 | 0.0 | 0.00 | 0.00 | 0.00 | 81 | |
| 20260509105338 | 42 | 336 | 0.0 | 0.0 | 0.00 | 0.00 | 0.00 | 81 | |
| 20260509104835 | 42 | 358 | 0.0 | 0.0 | 0.00 | 0.00 | 0.00 | 81 | |
| 20260509104331 | 42 | 6 | 0.0 | 0.0 | 0.00 | 0.00 | 0.00 | 82 | |
| 20260509103829 | 42 | 46 | 0.0 | 0.0 | 0.00 | 0.00 | 0.00 | 82 | |
| 20260509103326 | 42 | 2 | 0.0 | 0.0 | 0.00 | 0.00 | 0.00 | 82 | |
| 20260509102825 | 42 | 1 | 0.0 | 0.0 | 0.00 | 0.00 | 0.00 | 81 | |
| 20260509102322 | 42 | 1 | 0.0 | 0.0 | 0.00 | 0.00 | 0.00 | 81 | |
| 20260509101818 | 42 | 353 | 0.0 | 0.0 | 0.00 | 0.00 | 0.00 | 81 | |
| 20260509101314 | 42 | 3 | 0.0 | 0.0 | 0.00 | 0.00 | 0.00 | 81 | |
| 20260509100812 | 42 | 8 | 0.0 | 0.0 | 0.00 | 0.00 | 0.00 | 81 | |
| 20260509100309 | 42 | 353 | 0.0 | 0.0 | 0.00 | 0.00 | 0.00 | 81 | |
| 20260509095805 | 42 | 18 | 0.0 | 0.0 | 0.00 | 0.00 | 0.00 | 81 | |
| 20260509095305 | 42 | 0 | 0.0 | 0.0 | 0.00 | 0.00 | 0.00 | 81 | |
| 20260509094800 | 42 | 8 | 0.0 | 0.0 | 0.00 | 0.00 | 0.00 | 80 | |
| 20260509094256 | 42 | 13 | 0.0 | 0.0 | 0.00 | 0.00 | 0.00 | 80 | |
| 20260509093754 | 42 | 28 | 0.0 | 0.0 | 0.00 | 0.00 | 0.00 | 80 | |
| 20260509093251 | 42 | 355 | 0.0 | 0.0 | 0.00 | 0.00 | 0.00 | 80 | |
| 20260509092750 | 43 | 354 | 0.0 | 0.0 | 0.00 | 0.00 | 0.00 | 80 | |
| 20260509092247 | 43 | 8 | 0.0 | 0.0 | 0.00 | 0.00 | 0.00 | 79 | |
| 20260509091745 | 43 | 346 | 0.0 | 0.0 | 0.00 | 0.00 | 0.00 | 79 | |
| 20260509091241 | 43 | 4 | 0.0 | 0.0 | 0.00 | 0.00 | 0.00 | 78 | |
| 20260509090739 | 44 | 300 | 0.0 | 0.0 | 0.00 | 0.00 | 0.00 | 78 | |
| 20260509090236 | 44 | 350 | 0.0 | 1.0 | 0.00 | 0.00 | 0.00 | 77 | |
| 20260509085734 | 44 | 339 | 0.0 | 0.0 | 0.00 | 0.00 | 0.00 | 76 |